| time (UTC) | temp F | wind direction | speed knots | gust knots | rain 1hr in | rain 24hr in | rain mn in | humidity % | barometer mb |
| 20260503003520 | 56 | 242 | 4.3 | 8.7 | 0.00 | 0.00 | 0.00 | 23 | 1021.3 |
| 20260503002521 | 56 | 225 | 3.5 | 6.1 | 0.00 | 0.00 | 0.00 | 23 | 1021.3 |
| 20260503001518 | 57 | 157 | 2.6 | 4.3 | 0.00 | 0.00 | 0.00 | 22 | 1021.3 |
| 20260503000518 | 57 | 48 | 1.7 | 3.5 | 0.00 | 0.00 | 0.00 | 21 | 1021.4 |
| 20260502235541 | 57 | 12 | 3.5 | 5.2 | 0.00 | 0.00 | 0.00 | 21 | 1021.5 |
| 20260502234521 | 57 | 359 | 2.6 | 5.2 | 0.00 | 0.00 | 0.00 | 20 | 1021.6 |
| 20260502233519 | 56 | 108 | 1.7 | 3.5 | 0.00 | 0.00 | 0.00 | 20 | 1021.6 |
| 20260502232522 | 55 | 175 | 4.3 | 7.0 | 0.00 | 0.00 | 0.00 | 23 | 1021.6 |
| 20260502231522 | 56 | 175 | 4.3 | 7.0 | 0.00 | 0.00 | 0.00 | 24 | 1021.6 |
| 20260502230522 | 56 | 230 | 4.3 | 7.8 | 0.00 | 0.00 | 0.00 | 24 | 1021.7 |
| 20260502225522 | 55 | 154 | 5.2 | 7.8 | 0.00 | 0.00 | 0.00 | 20 | 1021.8 |
| 20260502224523 | 55 | 182 | 4.3 | 7.8 | 0.00 | 0.00 | 0.00 | 21 | 1021.7 |
| 20260502223523 | 56 | 167 | 5.2 | 8.7 | 0.00 | 0.00 | 0.00 | 19 | 1021.7 |
| 20260502222520 | 56 | 129 | 1.7 | 4.3 | 0.00 | 0.00 | 0.00 | 20 | 1021.9 |
| 20260502221517 | 56 | 137 | 4.3 | 7.8 | 0.00 | 0.00 | 0.00 | 20 | 1022.0 |
| 20260502220517 | 56 | 124 | 2.6 | 7.0 | 0.00 | 0.00 | 0.00 | 19 | 1022.1 |
| 20260502215518 | 55 | 170 | 2.6 | 6.1 | 0.00 | 0.00 | 0.00 | 21 | 1022.3 |
| 20260502214518 | 55 | 137 | 2.6 | 6.1 | 0.00 | 0.00 | 0.00 | 21 | 1022.5 |
| 20260502213524 | 55 | 149 | 3.5 | 7.8 | 0.00 | 0.00 | 0.00 | 19 | 1022.7 |
| 20260502212518 | 55 | 160 | 3.5 | 6.1 | 0.00 | 0.00 | 0.00 | 22 | 1022.8 |
| 20260502211518 | 55 | 226 | 4.3 | 7.8 | 0.00 | 0.00 | 0.00 | 24 | 1023.0 |
| 20260502210519 | 55 | 236 | 4.3 | 8.7 | 0.00 | 0.00 | 0.00 | 25 | 1023.1 |
| 20260502205522 | 54 | 119 | 1.7 | 3.5 | 0.00 | 0.00 | 0.00 | 22 | 1023.3 |
| 20260502204539 | 53 | 18 | 3.5 | 7.8 | 0.00 | 0.00 | 0.00 | 22 | 1023.4 |
| 20260502203519 | 54 | 29 | 4.3 | 8.7 | 0.00 | 0.00 | 0.00 | 24 | 1023.4 |
| 20260502202519 | 53 | 54 | 4.3 | 8.7 | 0.00 | 0.00 | 0.00 | 25 | 1023.5 |
| 20260502201520 | 53 | 0 | 4.3 | 6.1 | 0.00 | 0.00 | 0.00 | 25 | 1023.6 |
| 20260502200519 | 52 | 196 | 3.5 | 7.8 | 0.00 | 0.00 | 0.00 | 26 | 1023.7 |
| 20260502195521 | 52 | 204 | 5.2 | 12.2 | 0.00 | 0.00 | 0.00 | 26 | 1023.7 |
| 20260502194520 | 52 | 198 | 6.1 | 13.0 | 0.00 | 0.00 | 0.00 | 29 | 1023.7 |
| 20260502193520 | 52 | 260 | 4.3 | 11.3 | 0.00 | 0.00 | 0.00 | 29 | 1023.9 |
| 20260502192521 | 51 | 219 | 4.3 | 7.0 | 0.00 | 0.00 | 0.00 | 28 | 1024.0 |
| 20260502191537 | 51 | 181 | 7.0 | 13.0 | 0.00 | 0.00 | 0.00 | 28 | 1024.0 |
| 20260502190538 | 51 | 204 | 5.2 | 12.2 | 0.00 | 0.00 | 0.00 | 28 | 1024.2 |
| 20260502185521 | 50 | 283 | 4.3 | 13.0 | 0.00 | 0.00 | 0.00 | 28 | 1024.3 |
| 20260502184521 | 50 | 54 | 3.5 | 7.8 | 0.00 | 0.00 | 0.00 | 26 | 1024.5 |
| 20260502183521 | 50 | 173 | 3.5 | 7.0 | 0.00 | 0.00 | 0.00 | 26 | 1024.6 |
| 20260502182542 | 49 | 52 | 2.6 | 7.8 | 0.00 | 0.00 | 0.00 | 28 | 1024.8 |
| 20260502181538 | 49 | 186 | 5.2 | 10.4 | 0.00 | 0.00 | 0.00 | 30 | 1024.8 |
| 20260502180542 | 50 | 206 | 4.3 | 7.0 | 0.00 | 0.00 | 0.00 | 29 | 1025.0 |
| 20260502163517 | 46 | 206 | 4.3 | 7.8 | 0.00 | 0.00 | 0.00 | 33 | 1025.4 |
| 20260502162517 | 46 | 231 | 3.5 | 7.8 | 0.00 | 0.00 | 0.00 | 35 | 1025.4 |
| 20260502161524 | 45 | 200 | 4.3 | 7.8 | 0.00 | 0.00 | 0.00 | 35 | 1025.5 |
| 20260502160524 | 45 | 203 | 3.5 | 7.0 | 0.00 | 0.00 | 0.00 | 33 | 1025.4 |
| 20260502151608 | 43 | 158 | 0.9 | 2.6 | 0.00 | 0.00 | 0.00 | 49 | 1025.8 |
| 20260502150528 | 41 | 266 | 1.7 | 3.5 | 0.00 | 0.00 | 0.00 | 58 | 1025.7 |
| 20260502130530 | 30 | 115 | 1.7 | 2.6 | 0.00 | 0.00 | 0.00 | 82 | 1025.5 |
| 20260502123531 | 25 | 134 | 2.6 | 4.3 | 0.00 | 0.00 | 0.00 | 86 | 1025.1 |
| 20260502122531 | 25 | 124 | 2.6 | 3.5 | 0.00 | 0.00 | 0.00 | 86 | 1025.1 |
| 20260502121523 | 24 | 133 | 2.6 | 4.3 | 0.00 | 0.00 | 0.00 | 87 | 1025.1 |
| 20260502120531 | 24 | 138 | 3.5 | 4.3 | 0.00 | 0.00 | 0.00 | 87 | 1025.2 |
| 20260502115552 | 23 | 159 | 2.6 | 4.3 | 0.00 | 0.00 | 0.00 | 86 | 1025.1 |
| 20260502114532 | 23 | 140 | 1.7 | 1.7 | 0.00 | 0.00 | 0.00 | 87 | 1025.0 |
| 20260502113532 | 23 | 127 | 1.7 | 2.6 | 0.00 | 0.00 | 0.00 | 87 | 1025.0 |
| 20260502112517 | 24 | 169 | 1.7 | 2.6 | 0.00 | 0.00 | 0.00 | 86 | 1024.9 |
| 20260502111517 | 25 | 176 | 2.6 | 3.5 | 0.00 | 0.00 | 0.00 | 85 | 1024.9 |
| 20260502110518 | 24 | 152 | 2.6 | 3.5 | 0.00 | 0.00 | 0.00 | 88 | 1025.0 |
| 20260502105518 | 23 | 182 | 1.7 | 2.6 | 0.00 | 0.00 | 0.00 | 88 | 1025.0 |
| 20260502104518 | 23 | 138 | 1.7 | 2.6 | 0.00 | 0.00 | 0.00 | 88 | 1024.9 |
| 20260502103518 | 23 | 137 | 1.7 | 3.5 | 0.00 | 0.00 | 0.00 | 88 | 1024.9 |
| 20260502102518 | 23 | 167 | 2.6 | 2.6 | 0.00 | 0.00 | 0.00 | 88 | 1024.9 |
| 20260502101519 | 24 | 220 | 0.9 | 1.7 | 0.00 | 0.00 | 0.00 | 87 | 1024.8 |
| 20260502100519 | 25 | 140 | 2.6 | 2.6 | 0.00 | 0.00 | 0.00 | 87 | 1024.8 |
| 20260502091520 | 24 | 147 | 2.6 | 2.6 | 0.00 | 0.00 | 0.00 | 87 | 1024.7 |
| 20260502090540 | 24 | 208 | 2.6 | 3.5 | 0.00 | 0.00 | 0.00 | 88 | 1024.6 |
| 20260502071522 | 29 | 154 | 2.6 | 2.6 | 0.00 | 0.00 | 0.00 | 85 | 1024.9 |
| 20260502070523 | 29 | 128 | 0.9 | 3.5 | 0.00 | 0.00 | 0.00 | 85 | 1024.7 |
| 20260502065516 | 29 | 141 | 4.3 | 5.2 | 0.00 | 0.00 | 0.00 | 84 | 1024.6 |
| 20260502064516 | 30 | 139 | 4.3 | 5.2 | 0.00 | 0.00 | 0.00 | 84 | 1024.5 |
| 20260502063523 | 30 | 138 | 3.5 | 5.2 | 0.00 | 0.00 | 0.00 | 83 | 1024.6 |
| 20260502062523 | 30 | 126 | 3.5 | 6.1 | 0.00 | 0.00 | 0.00 | 84 | 1024.5 |
| 20260502061523 | 30 | 130 | 3.5 | 5.2 | 0.00 | 0.00 | 0.00 | 84 | 1024.4 |
| 20260502060517 | 30 | 138 | 4.3 | 5.2 | 0.00 | 0.00 | 0.00 | 84 | 1024.4 |
| 20260502055517 | 29 | 136 | 4.3 | 6.1 | 0.00 | 0.00 | 0.00 | 85 | 1024.4 |
| 20260502054518 | 29 | 141 | 4.3 | 5.2 | 0.00 | 0.00 | 0.00 | 85 | 1024.4 |
| 20260502053524 | 29 | 134 | 3.5 | 4.3 | 0.00 | 0.00 | 0.00 | 85 | 1024.4 |
| 20260502052524 | 30 | 179 | 3.5 | 3.5 | 0.00 | 0.00 | 0.00 | 85 | 1024.4 |
| 20260502051524 | 29 | 151 | 2.6 | 3.5 | 0.00 | 0.00 | 0.00 | 87 | 1024.4 |
| 20260502050525 | 30 | 188 | 2.6 | 4.3 | 0.00 | 0.00 | 0.00 | 86 | 1024.6 |
| 20260502045518 | 30 | 175 | 3.5 | 7.0 | 0.00 | 0.00 | 0.00 | 86 | 1024.6 |
| 20260502044519 | 30 | 141 | 3.5 | 4.3 | 0.00 | 0.00 | 0.00 | 85 | 1024.6 |
| 20260502043525 | 31 | 142 | 3.5 | 4.3 | 0.00 | 0.00 | 0.00 | 84 | 1024.5 |
| 20260502042545 | 32 | 141 | 3.5 | 3.5 | 0.00 | 0.00 | 0.00 | 83 | 1024.5 |
| 20260502041525 | 32 | 134 | 2.6 | 3.5 | 0.00 | 0.00 | 0.00 | 84 | 1024.5 |
| 20260502040545 | 32 | 133 | 2.6 | 4.3 | 0.00 | 0.00 | 0.00 | 84 | 1024.4 |
| 20260502035526 | 33 | 139 | 2.6 | 3.5 | 0.00 | 0.00 | 0.00 | 83 | 1024.3 |
| 20260502034526 | 34 | 104 | 2.6 | 3.5 | 0.00 | 0.00 | 0.00 | 83 | 1024.3 |
| 20260502033526 | 35 | 132 | 2.6 | 2.6 | 0.00 | 0.00 | 0.00 | 83 | 1024.3 |
| 20260502032526 | 35 | 174 | 1.7 | 2.6 | 0.00 | 0.00 | 0.00 | 81 | 1024.1 |
| 20260502031527 | 35 | 141 | 2.6 | 3.5 | 0.00 | 0.00 | 0.00 | 80 | 1024.0 |
| 20260502030527 | 35 | 156 | 2.6 | 3.5 | 0.00 | 0.00 | 0.00 | 82 | 1023.8 |
| 20260502025527 | 35 | 162 | 1.7 | 2.6 | 0.00 | 0.00 | 0.00 | 81 | 1023.7 |
| 20260502024527 | 35 | 174 | 2.6 | 4.3 | 0.00 | 0.00 | 0.00 | 80 | 1023.4 |
| 20260502023547 | 35 | 142 | 3.5 | 4.3 | 0.00 | 0.00 | 0.00 | 82 | 1023.4 |
| 20260502022642 | 35 | 174 | 3.5 | 4.3 | 0.00 | 0.00 | 0.00 | 81 | 1023.2 |
| 20260502021541 | 35 | 175 | 3.5 | 4.3 | 0.00 | 0.00 | 0.00 | 80 | 1023.0 |
| 20260502020542 | 36 | 180 | 3.5 | 5.2 | 0.00 | 0.00 | 0.00 | 80 | 1022.8 |
| 20260502015522 | 36 | 196 | 6.1 | 7.0 | 0.00 | 0.00 | 0.00 | 78 | 1022.6 |
| 20260502014522 | 37 | 193 | 4.3 | 6.1 | 0.00 | 0.00 | 0.00 | 76 | 1022.4 |
| 20260502013524 | 38 | 219 | 6.1 | 8.7 | 0.00 | 0.00 | 0.00 | 73 | 1022.1 |
| 20260502012528 | 40 | 225 | 2.6 | 3.5 | 0.00 | 0.00 | 0.00 | 65 | 1022.0 |
| 20260502011529 | 40 | 183 | 2.6 | 3.5 | 0.00 | 0.00 | 0.00 | 64 | 1021.9 |
| 20260502010517 | 41 | 161 | 2.6 | 4.3 | 0.00 | 0.00 | 0.00 | 59 | 1021.8 |
| 20260502005518 | 41 | 64 | 4.3 | 5.2 | 0.00 | 0.00 | 0.00 | 55 | 1021.6 |
| 20260502004529 | 42 | 79 | 1.7 | 2.6 | 0.00 | 0.00 | 0.00 | 53 | 1021.5 |